Copper Mountain, CO

1:07 AM MST on December 16, 2017 (GMT -0700)
Copper Mountain

Weather History for KCCU - March, 2013

Change the Weather History Date:

Saturday, March 23, 2013

  Actual Average Record
Temperature  
Mean Temperature 8 °F -  
Max Temperature 14 °F - 50 °F (2012)
Min Temperature 1 °F - 1 °F (2008)
Degree Days  
Heating Degree Days 58    
Month to date heating degree days  
Cooling Degree Days 0    
Month to date cooling degree days  
Moisture  
Dew Point -2 °F    
Average Humidity 71    
Maximum Humidity 79    
Minimum Humidity 66    
Precipitation  
Precipitation 0.00 in - 0.00 in (2017)
Sea Level Pressure  
Sea Level Pressure 29.69 in    
Wind  
Wind Speed 13 mph (West)    
Max Wind Speed 23 mph    
Max Gust Speed 32 mph    
Visibility 2 miles    
Events Snow    
T = Trace of Precipitation, MM = Missing Value Source: NWS Daily Summary

Daily Weather History Graph

Daily Weather History Graph

Search for Another Location

Airport or City:

Trip Planner

Search our weather history database for the weather conditions in past years. The results will help you decide how hot, cold, wet, or windy it might be!

Date:

Astronomy

Mar. 23, 2013 Rise Set
Actual Time 7:02 AM MDT 7:19 PM MDT
Civil Twilight 6:35 AM MDT 7:46 PM MDT
Nautical Twilight 6:04 AM MDT 8:18 PM MDT
Astronomical Twilight 5:32 AM MDT 8:50 PM MDT
Moon 3:50 PM MDT (3/23) 4:39 AM MDT (3/23)
Length of Visible Light 13h 10m
Length of Day
12h 17m
Waxing Gibbous, 85% of the Moon is Illuminated
Mar 23
Waxing Gibbous
Mar 27
Full
Apr 2
Last Quarter
Apr 10
New
Apr 18
First Quarter

Hourly Weather History & Observations

Time (MDT) Temp. Windchill Dew Point Humidity Pressure Visibility Wind Dir Wind Speed Gust Speed Precip Events Conditions
12:12 AM 14.0 °F 5.1 °F 8.6 °F 79% 29.67 in 0.8 mi SSE 5.8 mph - N/A Snow Snow
12:32 AM 12.2 °F -1.0 °F 5.0 °F 73% 29.65 in 5.0 mi SSE 10.4 mph - N/A Snow Light Snow
12:52 AM 12.2 °F -2.5 °F 5.0 °F 73% 29.65 in 10.0 mi South 12.7 mph 18.4 mph N/A   Overcast
1:12 AM 12.2 °F -1.8 °F 5.0 °F 73% 29.64 in 1.5 mi South 11.5 mph - N/A Snow Light Snow
1:32 AM 12.2 °F -3.1 °F 5.0 °F 73% 29.65 in 1.2 mi South 13.8 mph - N/A Snow Light Snow
1:52 AM 12.2 °F - 5.0 °F 73% 29.65 in 1.0 mi North - - N/A Snow Snow
2:12 AM 12.2 °F -0.2 °F 5.0 °F 73% 29.65 in 0.5 mi WSW 9.2 mph - N/A Snow Snow
2:32 AM 10.4 °F - 3.2 °F 73% 29.63 in 1.2 mi North - - N/A Snow Light Snow
2:52 AM 10.4 °F -4.8 °F 3.2 °F 73% 29.63 in 1.5 mi West 12.7 mph - N/A Snow Light Snow
3:12 AM 8.6 °F - 1.4 °F 73% 29.63 in 0.8 mi North - - N/A Snow Snow
3:32 AM 8.6 °F -11.4 °F 1.4 °F 73% 29.61 in 1.2 mi WNW 21.9 mph - N/A Snow Light Snow
3:52 AM 8.6 °F -9.5 °F 1.4 °F 73% 29.61 in 1.2 mi West 17.3 mph - N/A Snow Light Snow
4:12 AM 6.8 °F -12.9 °F -0.4 °F 72% 29.60 in 1.5 mi West 19.6 mph - N/A Snow Light Snow
4:32 AM 6.8 °F -9.3 °F -0.4 °F 72% 29.60 in 5.0 mi West 12.7 mph 24.2 mph N/A Snow Light Snow
4:52 AM 6.8 °F -10.7 °F -0.4 °F 72% 29.60 in 1.5 mi West 15.0 mph - N/A Snow Light Snow
5:12 AM 6.8 °F -11.8 °F -0.4 °F 72% 29.58 in 2.5 mi West 17.3 mph - N/A Snow Light Snow
5:32 AM 5.0 °F - -2.2 °F 72% 29.58 in 2.5 mi North - - N/A Snow Light Snow
5:52 AM 5.0 °F -12.3 °F -2.2 °F 72% 29.58 in 2.0 mi WSW 13.8 mph 32.2 mph N/A Snow Light Snow
6:12 AM 5.0 °F - -4.0 °F 66% 29.58 in 0.8 mi North - - N/A Snow Snow
6:21 AM 5.0 °F -14.7 °F -4.0 °F 66% 29.58 in 0.8 mi West 18.4 mph - N/A Snow Snow
7:12 AM 5.0 °F - -4.0 °F 66% 29.58 in 0.5 mi North - - N/A Snow Snow
7:32 AM 5.0 °F - -4.0 °F 66% 29.60 in 0.2 mi North - - N/A Snow Snow
7:52 AM 5.0 °F - -4.0 °F 66% 29.59 in 0.5 mi North - - N/A Snow Snow
8:12 AM 5.0 °F -16.7 °F -4.0 °F 66% 29.59 in 0.5 mi West 23.0 mph 28.8 mph N/A Snow Snow
8:32 AM 3.2 °F - -4.0 °F 72% 29.60 in 0.5 mi North - - N/A Snow Light Snow
8:52 AM 5.0 °F - -4.0 °F 66% 29.60 in 0.5 mi North - - N/A Snow Light Snow
9:12 AM 3.2 °F - -5.8 °F 66% 29.60 in 0.5 mi North - - N/A Snow Light Snow
9:32 AM 3.2 °F - -4.0 °F 72% 29.61 in 0.5 mi North - - N/A Snow Light Snow
9:52 AM 5.0 °F - -4.0 °F 66% 29.62 in 0.5 mi North - - N/A Snow Light Snow
10:12 AM 5.0 °F - -4.0 °F 66% 29.62 in 0.5 mi North - - N/A Snow Light Snow
10:32 AM 3.2 °F - -4.0 °F 72% 29.63 in 0.2 mi North - - N/A Snow Snow
10:52 AM 5.0 °F - -4.0 °F 66% 29.64 in - North - - N/A   Overcast
11:12 AM 5.0 °F - -4.0 °F 66% 29.65 in - North - - N/A   Overcast
11:32 AM 5.0 °F - -4.0 °F 66% 29.65 in - North - - N/A   Overcast
11:52 AM 5.0 °F -10.8 °F -4.0 °F 66% 29.66 in - West 11.5 mph 16.1 mph N/A   Overcast
12:12 PM 5.0 °F -10.8 °F -4.0 °F 66% 29.66 in - West 11.5 mph - N/A   Overcast
12:32 PM 5.0 °F - -4.0 °F 66% 29.67 in - North - - N/A   Overcast
12:52 PM 5.0 °F - -2.2 °F 72% 29.67 in - North - - N/A   Overcast
1:12 PM 5.0 °F - -0.4 °F 78% 29.68 in - North - - N/A   Overcast
1:32 PM 5.0 °F - -0.4 °F 78% 29.69 in - North - - N/A   Overcast
1:52 PM 5.0 °F - -2.2 °F 72% 29.69 in - North - - N/A   Overcast
2:12 PM 5.0 °F -6.9 °F -2.2 °F 72% 29.69 in - West 6.9 mph 20.7 mph N/A   Overcast
2:32 PM 5.0 °F - -4.0 °F 66% 29.70 in - North - - N/A   Overcast
2:52 PM 5.0 °F - -2.2 °F 72% 29.70 in - North - - N/A   Overcast
3:12 PM 5.0 °F -10.0 °F -4.0 °F 66% 29.71 in - WNW 10.4 mph - N/A   Overcast
3:32 PM 5.0 °F -10.8 °F -2.2 °F 72% 29.71 in - WNW 11.5 mph - N/A   Overcast
3:52 PM 5.0 °F -6.9 °F -0.4 °F 78% 29.71 in - West 6.9 mph - N/A   Overcast
4:12 PM 5.0 °F -11.6 °F -0.4 °F 78% 29.72 in - WNW 12.7 mph - N/A   Overcast
4:32 PM 5.0 °F -15.7 °F -0.4 °F 78% 29.72 in - West 20.7 mph 25.3 mph N/A   Overcast
4:52 PM 5.0 °F - -0.4 °F 78% 29.73 in - North - - N/A   Overcast
5:12 PM 5.0 °F -9.1 °F -0.4 °F 78% 29.74 in - West 9.2 mph - N/A   Overcast
5:32 PM 5.0 °F -14.2 °F -0.4 °F 78% 29.74 in - West 17.3 mph - N/A   Overcast
5:52 PM 5.0 °F - -0.4 °F 78% 29.74 in - North - - N/A   Overcast
6:12 PM 5.0 °F - -2.2 °F 72% 29.75 in - North - - N/A   Overcast
6:32 PM 5.0 °F - -2.2 °F 72% 29.76 in - North - - N/A   Overcast
6:52 PM 5.0 °F - -2.2 °F 72% 29.77 in - North - - N/A   Overcast
7:12 PM 5.0 °F -9.1 °F -2.2 °F 72% 29.78 in - WNW 9.2 mph 20.7 mph N/A   Overcast
7:32 PM 5.0 °F -15.2 °F -4.0 °F 66% 29.79 in - West 19.6 mph 24.2 mph N/A   Overcast
7:52 PM 5.0 °F -13.6 °F -4.0 °F 66% 29.79 in - West 16.1 mph - N/A   Overcast
8:12 PM 5.0 °F -12.3 °F -4.0 °F 66% 29.80 in - West 13.8 mph 18.4 mph N/A   Overcast
8:32 PM 5.0 °F - -4.0 °F 66% 29.81 in - North - - N/A   Overcast
8:52 PM 5.0 °F -14.2 °F -4.0 °F 66% 29.81 in - West 17.3 mph - N/A   Overcast
9:12 PM 3.2 °F -16.5 °F -5.8 °F 66% 29.82 in - West 17.3 mph - N/A   Overcast
9:32 PM 3.2 °F -17.6 °F -5.8 °F 66% 29.82 in - West 19.6 mph - N/A   Overcast
9:52 PM 3.2 °F -15.9 °F -5.8 °F 66% 29.83 in - West 16.1 mph - N/A   Overcast
10:12 PM 3.2 °F -16.5 °F -5.8 °F 66% 29.84 in - West 17.3 mph - N/A   Overcast
10:32 PM 1.4 °F -18.8 °F -5.8 °F 72% 29.84 in - West 17.3 mph - N/A   Overcast
10:52 PM 1.4 °F -20.5 °F -5.8 °F 72% 29.83 in - West 20.7 mph - N/A   Overcast
11:12 PM 1.4 °F -19.9 °F -5.8 °F 72% 29.84 in - West 19.6 mph - N/A   Overcast
11:32 PM 1.4 °F -15.3 °F -5.8 °F 72% 29.84 in - West 11.5 mph - N/A   Overcast
11:52 PM 1.4 °F -15.3 °F -5.8 °F 72% 29.84 in - West 11.5 mph - N/A   Overcast